| Temperature (°F) | Max | Average | Min |
|---|---|---|---|
| Max Temperature | 55 | 50.45 | 43 |
| Avg Temperature | 54.1 | 46.81 | 31.62 |
| Min Temperature | 50 | 42.84 | 27 |
| Precipitation (in) | Max | Average | Min | Sum |
|---|---|---|---|---|
| Precipitation | 0 | 0 | 0 | 0 |
| Dew Point (°F) | Max | Average | Min |
|---|---|---|---|
| Dew Point | 50.94 | 42.17 | 27.62 |
| Wind (mph) | Max | Average | Min |
|---|---|---|---|
| Wind | 55 | 24.9 | 5 |
| Gust Wind | 75 | 44.34 | 16 |
| Sea Level Pressure (in) | Max | Average | Min |
|---|---|---|---|
| Sea Level Pressure | 30.63 | 30.13 | 29.5 |
| Date | Temp High/Low | Dew Pt High/Low | Humidity | Wind | Max Wind | Wind Gust | Pressure | Precip. | Condition |
|---|---|---|---|---|---|---|---|---|---|
| 12/1/2024 | 55 °F / 50 °F | 54 °F / 45 °F | 89 % | 22 mph | - | 29.75 in | 0 in | ||
| 12/2/2024 | 52 °F / 37 °F | 48 °F / 36 °F | 85 % | 28 mph | - | 29.95 in | 0 in | ||
| 12/3/2024 | 50 °F / 36 °F | 48 °F / 34 °F | 84 % | 18 mph | - | 30.15 in | 0 in | ||
| 12/4/2024 | 54 °F / 39 °F | 52 °F / 37 °F | 91 % | 29 mph | - | 30.03 in | 0 in | ||
| 12/5/2024 | 55 °F / 48 °F | 54 °F / 37 °F | 85 % | 37 mph | - | 29.63 in | 0 in | ||
| 12/6/2024 | 55 °F / 41 °F | 52 °F / 36 °F | 79 % | 36 mph | - | 29.73 in | 0 in | ||
| 12/7/2024 | 52 °F / 45 °F | 48 °F / 34 °F | 76 % | 55 mph | - | 29.5 in | 0 in | ||
| 12/8/2024 | 46 °F / 43 °F | 41 °F / 34 °F | 72 % | 32 mph | - | 30.46 in | 0 in | ||
| 12/9/2024 | 48 °F / 45 °F | 43 °F / 36 °F | 76 % | 23 mph | - | 30.63 in | 0 in | ||
| 12/10/2024 | 45 °F / 28 °F | 36 °F / 25 °F | 73 % | 24 mph | - | 30.61 in | 0 in | ||
| 12/11/2024 | 45 °F / 27 °F | 32 °F / 23 °F | 85 % | 6 mph | - | 30.55 in | 0 in | ||
| 12/12/2024 | 43 °F / 30 °F | 37 °F / 28 °F | 87 % | 5 mph | - | 30.46 in | 0 in | ||
| 12/13/2024 | 45 °F / 39 °F | 43 °F / 37 °F | 93 % | 6 mph | - | 30.27 in | 0 in | ||
| 12/14/2024 | 50 °F / 41 °F | 48 °F / 37 °F | 86 % | 18 mph | - | 30.2 in | 0 in | ||
| 12/15/2024 | 54 °F / 50 °F | 50 °F / 48 °F | 91 % | 20 mph | - | 30.3 in | 0 in | ||
| 12/16/2024 | 52 °F / 48 °F | 48 °F / 46 °F | 88 % | 21 mph | - | 30.33 in | 0 in | ||
| 12/17/2024 | 54 °F / 48 °F | 52 °F / 43 °F | 88 % | 37 mph | - | 29.94 in | 0 in | ||
| 12/18/2024 | 55 °F / 43 °F | 54 °F / 39 °F | 91 % | 32 mph | - | 29.52 in | 0 in | ||
| 12/19/2024 | 46 °F / 43 °F | 39 °F / 36 °F | 73 % | 30 mph | - | 29.86 in | 0 in | ||
| 12/20/2024 | 52 °F / 46 °F | 48 °F / 37 °F | 81 % | 25 mph | - | 29.99 in | 0 in | ||
| 12/21/2024 | 52 °F / 46 °F | 50 °F / 34 °F | 77 % | 36 mph | - | 29.74 in | 0 in | ||
| 12/22/2024 | 48 °F / 41 °F | 37 °F / 28 °F | 67 % | 44 mph | - | 29.83 in | 0 in | ||
| 12/23/2024 | 52 °F / 45 °F | 50 °F / 36 °F | 84 % | 28 mph | - | 30.2 in | 0 in | ||
| 12/24/2024 | 54 °F / 48 °F | 52 °F / 46 °F | 94 % | 18 mph | - | 30.25 in | 0 in | ||
| 12/25/2024 | 52 °F / 48 °F | 50 °F / 46 °F | 93 % | 17 mph | - | 30.42 in | 0 in | ||
| 12/26/2024 | 52 °F / 45 °F | 46 °F / 43 °F | 91 % | 17 mph | - | 30.5 in | 0 in | ||
| 12/27/2024 | 46 °F / 41 °F | 45 °F / 39 °F | 94 % | 9 mph | - | 30.45 in | 0 in | ||
| 12/28/2024 | 46 °F / 43 °F | 45 °F / 41 °F | 92 % | 13 mph | - | 30.35 in | 0 in | ||
| 12/29/2024 | 50 °F / 46 °F | 46 °F / 43 °F | 86 % | 21 mph | - | 30.34 in | 0 in | ||
| 12/30/2024 | 50 °F / 48 °F | 48 °F / 43 °F | 85 % | 26 mph | - | 30.21 in | 0 in | ||
| 12/31/2024 | 54 °F / 50 °F | 50 °F / 43 °F | 84 % | 39 mph | - | 29.9 in | 0 in |